Regional Weather Roundup
Issued by NWS Newport/Morehead, NC

Home | Current Version | Previous Version | Text Only | Print | Product List | Glossary On
Versions: 1 2 3 4 5 6 7 8 9 10 11 12 13 14 15 16 17 18 19 20 21 22 23 24 25 26 27 28 29 30 31 32 33 34 35 36 37 38 39 40 41 42 43 44 45 46 47 48 49 50
000
ASUS42 KMHX 280212
RWRMHX
WEATHER ROUNDUP FOR EASTERN NORTH CAROLINA
NATIONAL WEATHER SERVICE NEWPORT/MOREHEAD CITY NC
900 PM EST FRI FEB 27 2015

NOTE: "FAIR" INDICATES FEW OR NO CLOUDS BELOW 12,000 FEET
WITH NO SIGNIFICANT WEATHER AND/OR OBSTRUCTIONS TO VISIBILITY

NCZ015>017-031-032-045>047-102-103-280300-
NORTH COAST

CITY           SKY/WX    TMP DP  RH WIND       PRES   REMARKS
EDENTON        CLEAR     31  27  85 NE5       30.54R
ELIZABETH CITY CLEAR     31  26  82 NE10      30.54R
KITTY HAWK     CLEAR     34  29  84 NE7       30.51R
MANTEO         CLEAR     34  28  80 NE9G18    30.52R

$$

NCZ045>047-081-094-103-104-280300-
CENTRAL COAST

CITY           SKY/WX    TMP DP  RH WIND       PRES   REMARKS
FRISCO         MOCLDY    36  32  85 N12G20    30.49R
SWANQUARTER      N/A     34 N/A N/A N12G17    30.47S

$$

NCZ095-097-098-100-101-280300-
SOUTHERN COAST

CITY           SKY/WX    TMP DP  RH WIND       PRES   REMARKS
BEAUFORT       MOCLDY    36  30  79 NE9       30.49R
CEDAR ISLAND     N/A     36 N/A N/A VRB23G29  30.53R
JACKSONVILLE   PTCLDY    40  29  64 N7        30.47R
PINEY ISLAND     N/A    N/A N/A N/A MISG      30.49R
WILMINGTON     PTCLDY    39  34  82 NE5       30.46R


$$

NCZ011>013-027>030-043-044-078>080-089-090>093-098-280300-
COASTAL PLAIN

CITY           SKY/WX    TMP DP  RH WIND       PRES   REMARKS
AHOSKIE        CLEAR     29  25  82 NE6       30.55R
CLINTON        CLEAR     40  30  67 N5        30.49R
ELIZABETHTOWN  CLEAR     38  31  75 CALM      30.47R
GOLDSBORO      CLEAR     39  31  71 N8        30.47R
GREENVILLE     CLEAR     34  28  80 NE8       30.52R
HAVELOCK       PTCLDY    37  30  75 E9        30.50R
KENANSVILLE    PTCLDY    38  28  67 N3        30.49R
KINSTON        CLEAR     37  27  65 N8        30.50R
NEW BERN       PTCLDY    37  29  72 NE13      30.51R
RICHLANDS      PTCLDY    36  28  75 CALM      30.48R
ROCKY MOUNT    CLEAR     35  23  61 NE9       30.51R
WASHINGTON     CLEAR     33  27  80 NE6       30.52R
WHITEVILLE     CLEAR     42  32  67 CALM      30.46R

$$

AMZ130-135-150-152-154-156-158-170-250-252-270-ANZ085-086-088-633-658-670-280300-
MARINE OBSERVATIONS

STATION/POSITION TIME  TEMP    WIND        PRES    WAVE   SWELL
                       AIR SEA DIR/SP/G            HT/PER HT/PER
                 (UTC) (F)     (DEG/KT/KT) (MB)    (FT/S) (FT/S)
CHESAPEAKE LIGHT 0100   31      30/ 19/ 19 1034.0
64 E VA BEACH    0150   39 59   10/ 17/ 21 1032.9    7/10   5/10
DUCK             0100   34 35   20/ 17/ 21 1032.1
2 E DUCK         0111      35                N/A     5/11   2/11
10 NE DUCK       0052      36                N/A     6/11   2/11
OREGON INLET     0100   35 38  360/ 12/ 18 1032.5
HATTERAS CG      0100   38 41   20/ 13/ 18 1032.1
CAPE LOOKOUT     0200   41      30/ 17/ 22 1031.9
BEAUFORT LAB     0100   38 41   40/  7/ 11 1030.6
27 SE WRIGHTSVLE NOT AVBL
5 SE WRIGHTSVLE  NOT AVBL
225 S CAPE HAT   0150   64 70   20/ 17/ 21 1026.7   11/10   8/10
41 SE CHARLESTON 0150   53 65   40/ 17/ 21 1029.2    5/ 6   2/ 8

$$



USA.gov is the U.S. government's official web portal to all federal, state and local government web resources and services.